Location: Caualo
(45.5667°N, 10.8667°E)
Time: 10:26:07
(UTC+00:00)

In-Cosmos 22 Rocket - Pass Details

Date: 05 October 2020
Orbit: 790 x 889 km, 81.2° (Epoch: 20 October)

Event Time Altitude Azimuth Distance (km) Brightness Sun altitude
Rises 20:18:28 0° 350° (N) 3,321 7.8 -35.9°
Reaches altitude 10° 20:20:53 10° 352° (N) 2,378 7.0 -36.2°
Enters shadow 20:22:32 21° 354° (N) 1,750 6.1 -36.4°
